TimeCDT,TemperatureF,Dew PointF,Humidity,Sea Level PressureIn,VisibilityMPH,Wind Direction,Wind SpeedMPH,Gust SpeedMPH,PrecipitationIn,Events,Conditions,WindDirDegrees,DateUTC
12:15 AM,33.8,32.9,96,30.13,5.0,North,12.7,-,N/A,Snow,Light Snow,350,2013-04-01 05:15:00
12:35 AM,33.6,32.2,94,30.15,4.0,North,12.7,19.6,0.01,Snow,Light Snow,350,2013-04-01 05:35:00
12:55 AM,32.9,32.0,96,30.15,3.0,NNW,11.5,-,0.01,Snow,Light Snow,340,2013-04-01 05:55:00
1:15 AM,32.2,31.6,98,30.16,2.0,NNW,10.4,-,N/A,Snow,Light Snow,330,2013-04-01 06:15:00
1:35 AM,32.4,31.5,96,30.16,7.0,North,12.7,18.4,N/A,,Overcast,350,2013-04-01 06:35:00
1:55 AM,32.0,28.4,87,30.17,10.0,North,10.4,19.6,N/A,,Mostly Cloudy,350,2013-04-01 06:55:00
2:15 AM,31.3,27.3,85,30.18,10.0,North,15.0,20.7,N/A,,Mostly Cloudy,350,2013-04-01 07:15:00
2:35 AM,30.7,26.4,84,30.18,10.0,North,12.7,19.6,N/A,,Scattered Clouds,360,2013-04-01 07:35:00
2:55 AM,30.2,25.5,83,30.18,10.0,North,10.4,17.3,N/A,,Clear,350,2013-04-01 07:55:00
3:15 AM,29.8,24.1,79,30.19,10.0,North,9.2,18.4,N/A,,Clear,350,2013-04-01 08:15:00
3:35 AM,29.1,23.4,79,30.19,10.0,North,11.5,17.3,N/A,,Clear,350,2013-04-01 08:35:00
3:55 AM,28.4,23.0,80,30.21,10.0,North,9.2,-,N/A,,Clear,350,2013-04-01 08:55:00
4:15 AM,28.2,21.9,77,30.21,10.0,North,11.5,-,N/A,,Clear,350,2013-04-01 09:15:00
4:35 AM,27.5,21.4,78,30.22,10.0,North,9.2,-,N/A,,Clear,350,2013-04-01 09:35:00
4:55 AM,27.1,21.0,78,30.23,10.0,North,11.5,-,N/A,,Clear,350,2013-04-01 09:55:00
5:15 AM,26.6,20.8,79,30.23,10.0,North,9.2,-,N/A,,Clear,360,2013-04-01 10:15:00
5:35 AM,26.2,20.3,78,30.24,10.0,North,8.1,-,N/A,,Clear,350,2013-04-01 10:35:00
5:55 AM,24.8,20.3,83,30.24,10.0,NNW,6.9,-,N/A,,Clear,340,2013-04-01 10:55:00
6:15 AM,25.3,21.0,84,30.25,10.0,NNW,6.9,-,N/A,,Clear,340,2013-04-01 11:15:00
6:35 AM,24.8,20.7,84,30.26,10.0,NW,6.9,-,N/A,,Clear,320,2013-04-01 11:35:00
7:15 AM,23.9,20.1,85,30.27,10.0,NNW,9.2,-,N/A,,Clear,330,2013-04-01 12:15:00
7:35 AM,24.1,19.9,84,30.28,10.0,NNW,10.4,-,N/A,,Clear,330,2013-04-01 12:35:00
7:55 AM,24.3,19.8,83,30.30,10.0,NW,8.1,-,N/A,,Clear,310,2013-04-01 12:55:00
8:15 AM,24.8,19.9,82,30.31,10.0,NW,9.2,-,N/A,,Clear,310,2013-04-01 13:15:00
8:35 AM,25.7,19.9,79,30.31,10.0,NNW,9.2,-,N/A,,Clear,340,2013-04-01 13:35:00
9:15 AM,26.6,19.8,75,30.30,10.0,North,15.0,20.7,N/A,,Clear,350,2013-04-01 14:15:00
9:35 AM,27.1,19.6,73,30.30,10.0,North,13.8,23.0,N/A,,Clear,350,2013-04-01 14:35:00
9:55 AM,27.7,19.6,72,30.31,10.0,North,9.2,19.6,N/A,,Clear,350,2013-04-01 14:55:00
10:15 AM,28.2,19.6,70,30.31,10.0,North,9.2,17.3,N/A,,Clear,360,2013-04-01 15:15:00
10:35 AM,29.3,20.8,71,30.31,10.0,NNW,12.7,-,N/A,,Clear,340,2013-04-01 15:35:00
10:55 AM,30.0,20.5,68,30.32,10.0,North,9.2,-,N/A,,Clear,360,2013-04-01 15:55:00
11:15 AM,30.9,21.9,69,30.31,10.0,NNW,12.7,16.1,N/A,Thunderstorm,Clear,340,2013-04-01 16:15:00
11:35 AM,31.6,20.5,63,30.33,10.0,North,11.5,-,N/A,,Clear,350,2013-04-01 16:35:00
12:15 PM,33.1,18.5,55,30.33,10.0,North,9.2,16.1,N/A,,Clear,350,2013-04-01 17:15:00
12:35 PM,34.5,20.3,56,30.32,10.0,North,9.2,-,N/A,,Clear,10,2013-04-01 17:35:00
1:15 PM,35.6,17.4,48,30.32,10.0,North,10.4,-,N/A,,Clear,360,2013-04-01 18:15:00
1:35 PM,36.3,15.4,43,30.31,10.0,North,9.2,17.3,N/A,,Clear,360,2013-04-01 18:35:00
1:55 PM,36.9,16.2,43,30.31,10.0,NNE,10.4,-,N/A,,Clear,20,2013-04-01 18:55:00
2:15 PM,37.4,14.7,40,30.30,10.0,North,10.4,-,N/A,,Clear,10,2013-04-01 19:15:00
2:35 PM,37.8,16.3,42,30.30,10.0,North,9.2,-,N/A,,Clear,350,2013-04-01 19:35:00
3:15 PM,38.5,13.5,36,30.29,10.0,North,8.1,-,N/A,,Clear,350,2013-04-01 20:15:00
3:35 PM,39.4,12.2,33,30.29,10.0,North,8.1,-,N/A,,Clear,360,2013-04-01 20:35:00
3:55 PM,39.2,13.3,35,30.28,10.0,North,4.6,16.1,N/A,,Clear,360,2013-04-01 20:55:00
4:15 PM,40.1,12.9,33,30.28,10.0,NNW,9.2,-,N/A,,Clear,340,2013-04-01 21:15:00
4:35 PM,40.8,12.2,31,30.26,10.0,North,6.9,-,N/A,,Clear,360,2013-04-01 21:35:00
4:55 PM,40.6,11.1,30,30.26,10.0,North,9.2,-,N/A,,Clear,360,2013-04-01 21:55:00
5:15 PM,40.5,10.9,30,30.26,10.0,North,8.1,-,N/A,,Clear,350,2013-04-01 22:15:00
5:35 PM,40.1,11.1,31,30.26,10.0,NNW,6.9,-,N/A,,Clear,340,2013-04-01 22:35:00
5:55 PM,40.1,10.6,30,30.26,10.0,North,4.6,-,N/A,,Clear,10,2013-04-01 22:55:00
6:15 PM,40.1,10.6,30,30.26,10.0,NNW,6.9,-,N/A,,Clear,340,2013-04-01 23:15:00
6:35 PM,39.6,11.1,31,30.25,10.0,North,9.2,-,N/A,,Clear,10,2013-04-01 23:35:00
6:55 PM,38.8,9.9,30,30.25,10.0,North,6.9,-,N/A,,Clear,360,2013-04-01 23:55:00
7:15 PM,37.9,10.9,33,30.25,10.0,North,4.6,-,N/A,,Clear,350,2013-04-02 00:15:00
7:35 PM,36.9,12.2,36,30.25,10.0,North,3.5,-,N/A,,Clear,350,2013-04-02 00:35:00
7:55 PM,35.2,12.2,39,30.25,10.0,North,3.5,-,N/A,,Clear,350,2013-04-02 00:55:00
8:15 PM,33.8,13.8,44,30.26,10.0,North,3.5,-,N/A,,Clear,350,2013-04-02 01:15:00
8:35 PM,33.4,12.9,43,30.26,10.0,North,3.5,-,N/A,,Clear,350,2013-04-02 01:35:00
8:55 PM,32.5,14.0,46,30.28,10.0,Calm,Calm,-,N/A,,Clear,0,2013-04-02 01:55:00
9:15 PM,32.5,15.1,49,30.29,10.0,NNE,3.5,-,N/A,,Clear,20,2013-04-02 02:15:00
9:35 PM,32.9,15.4,49,30.29,10.0,NE,3.5,-,N/A,,Clear,40,2013-04-02 02:35:00
9:55 PM,32.2,16.3,52,30.30,10.0,Calm,Calm,-,N/A,,Clear,0,2013-04-02 02:55:00
10:15 PM,32.4,16.7,53,30.30,10.0,Calm,Calm,-,N/A,,Clear,0,2013-04-02 03:15:00
10:35 PM,32.0,17.1,54,30.30,10.0,Calm,Calm,-,N/A,,Clear,0,2013-04-02 03:35:00
10:55 PM,32.0,17.1,54,30.30,10.0,Calm,Calm,-,N/A,,Clear,0,2013-04-02 03:55:00
11:15 PM,32.0,17.2,55,30.30,10.0,Calm,Calm,-,N/A,,Clear,0,2013-04-02 04:15:00
11:35 PM,30.9,17.4,57,30.30,10.0,Calm,Calm,-,N/A,,Clear,0,2013-04-02 04:35:00
11:55 PM,31.1,17.6,57,30.30,10.0,Calm,Calm,-,N/A,,Clear,0,2013-04-02 04:55:00